User: anonymous   Login
Location: ??????
(55.6130°N, 37.7882°E)
Time: 20:19:33
(UTC+00:00)
Language:

Cosmos 1484 Rocket - Orbit

View from above orbital plane
View from above orbital plane
View from above satellite
View from above satellite

Ground track
Ground track

The orbit data is extracted from the following two-line orbital elements,

1 14208U 83075B   24172.21143436  .00005681  00000-0  25176-3 0  9992
2 14208  97.5681 151.5254 0029123 289.0229  70.7852 15.21652723234489
Epoch (UTC): 20 June 2024 05:04:27
Eccentricity: 0.0029123
inclination: 97.5681°
perigee height: 481 km
apogee height: 521 km
right ascension of ascending node: 151.5254°
argument of perigee: 289.0229°
revolutions per day: 15.21652723
mean anomaly at epoch: 70.7852°
orbit number at epoch: 23448

The dashed part of the orbit path shows where the satellite is in the earth's shadow,  

DLR